Flag for U.S.A. Weather past 2 weeks in Bowling Green, Kentucky, U.S.A.

Now
36 °F

Mostly cloudy.


Feels Like: 36 °F
Forecast: 35 / 63 °F
Wind: No wind

Location: Glasgow Municipal Airport

Current Time: Mar 3, 2015 at 3:03:28 AM

Latest Report: Mar 3, 2015 at 2:35 AM


Visibility: 10 mi

Pressure: 30.15 "Hg

Humidity: 70%

Dew point: 27 °F

Location of Bowling GreenLocation

Historic Weather in Bowling Green — Graph

°F

Bowling Green temperature yesterday

Maximum temperature yesterday: 43 °F (at 2:55 PM)
Minimum temperature yesterday: 29 °F (at 6:15 AM)
Average temperature yesterday: 35 °F

Past Weeks' High & Low Weather Summary

 TemperatureHumidityPressure
High48 °F (Mar 1, 3:15 PM)100% (Feb 20, 10:15 PM)30.66 "Hg (Feb 20, 10:15 PM)
Low-13 °F (Feb 19, 5:55 AM)32% (Feb 20, 12:35 PM)29.81 "Hg (Feb 25, 6:35 PM)
Average25 °F70%30.24 "Hg
* Reported Feb 16 1:15 AM — Mar 3 1:55 AM, Bowling Green, Weather by CustomWeather, © 2015

Note: Actual official high and low records may vary slightly from our data, if they occured in-between our weather recording intervals... More about our weather records

Advertising

Bowling Green weather history for previous 24 hours

 ConditionsComfort  
Time TempWeatherWind HumidityBarometerVisibility
1:55 AM
Tue, Mar 3
36 °FOvercast.No wind70%30.18 "Hg10 mi
1:35 AM36 °FOvercast.5 mph70%30.18 "Hg10 mi
1:15 AM36 °FOvercast.No wind69%30.20 "Hg10 mi
12:55 AM35 °FOvercast.3 mph69%30.21 "Hg10 mi
12:35 AM35 °FOvercast.5 mph70%30.21 "Hg10 mi
12:15 AM35 °FMostly cloudy.3 mph69%30.20 "Hg10 mi
11:55 PM
Mon, Mar 2
35 °FMostly cloudy.3 mph70%30.21 "Hg10 mi
11:35 PM35 °FOvercast.6 mph69%30.23 "Hg10 mi
11:15 PM34 °FPartly cloudy.7 mph70%30.24 "Hg10 mi
10:55 PM34 °FOvercast.6 mph68%30.26 "Hg10 mi
10:35 PM34 °FOvercast.6 mph68%30.26 "Hg10 mi
10:15 PM34 °FPassing clouds.6 mph67%30.28 "Hg10 mi
9:55 PM33 °FPassing clouds.6 mph68%30.29 "Hg10 mi
9:35 PM34 °FPassing clouds.8 mph67%30.29 "Hg10 mi
8:55 PM35 °FClear.6 mph66%30.32 "Hg10 mi
8:35 PM35 °FPassing clouds.7 mph65%30.31 "Hg10 mi
8:15 PM35 °FClear.9 mph65%30.32 "Hg10 mi
7:55 PM36 °FClear.8 mph62%30.33 "Hg10 mi
7:35 PM36 °FClear.7 mph60%30.34 "Hg10 mi
7:15 PM37 °FClear.7 mph57%30.34 "Hg10 mi
6:55 PM37 °FClear.7 mph57%30.35 "Hg10 mi
6:35 PM37 °FClear.5 mph56%30.35 "Hg10 mi
6:15 PM38 °FClear.5 mph53%30.36 "Hg10 mi
5:55 PM38 °FClear.3 mph53%30.36 "Hg10 mi
5:35 PM38 °FClear.6 mph51%30.35 "Hg10 mi
5:15 PM39 °FClear.7 mph49%30.36 "Hg10 mi
4:55 PM40 °FClear.12 mph47%30.35 "Hg10 mi
4:35 PM41 °FSunny.9 mph46%30.36 "Hg10 mi
4:15 PM42 °FSunny.8 mph46%30.36 "Hg10 mi
3:55 PM43 °FSunny.8 mph45%30.37 "Hg10 mi
3:15 PM43 °FSunny.8 mph46%30.38 "Hg10 mi
2:55 PM43 °FSunny.5 mph46%30.39 "Hg10 mi
2:15 PM42 °FSunny.8 mph50%30.39 "Hg10 mi
1:55 PM42 °FSunny.6 mph52%30.40 "Hg10 mi
1:35 PM42 °FSunny.6 mph52%30.41 "Hg10 mi
1:15 PM42 °FSunny.7 mph50%30.41 "Hg10 mi
12:55 PM41 °FSunny.7 mph51%30.42 "Hg10 mi
12:35 PM41 °FSunny.12 mph53%30.43 "Hg10 mi
12:15 PM41 °FSunny.8 mph52%30.44 "Hg10 mi
11:55 AM40 °FSunny.10 mph53%30.46 "Hg10 mi
11:35 AM39 °FSunny.8 mph54%30.48 "Hg10 mi
11:15 AM38 °FSunny.10 mph56%30.48 "Hg10 mi
10:55 AM38 °FSunny.9 mph60%30.48 "Hg10 mi
10:35 AM37 °FSunny.12 mph66%30.49 "Hg10 mi
10:15 AM35 °FScattered clouds.12 mph70%30.50 "Hg10 mi
9:55 AM34 °FScattered clouds.12 mph72%30.50 "Hg10 mi
9:35 AM33 °FPartly sunny.8 mph77%30.50 "Hg10 mi
9:15 AM32 °FPartly sunny.10 mph79%30.51 "Hg10 mi
8:55 AM32 °FPartly sunny.10 mph78%30.51 "Hg10 mi
8:15 AM31 °FSunny.7 mph78%30.50 "Hg10 mi
7:55 AM30 °FScattered clouds.7 mph80%30.51 "Hg10 mi
7:35 AM29 °FPartly sunny.7 mph82%30.51 "Hg10 mi
7:15 AM29 °FPartly sunny.7 mph82%30.51 "Hg10 mi
6:55 AM29 °FPartly sunny.7 mph83%30.50 "Hg10 mi
6:35 AM29 °FPartly sunny.6 mph85%30.49 "Hg10 mi
6:15 AM29 °FPartly sunny.6 mph84%30.48 "Hg10 mi
5:55 AM30 °FPartly sunny.9 mph82%30.48 "Hg10 mi
5:35 AM30 °FBroken clouds.10 mph84%30.48 "Hg10 mi
5:15 AM31 °FOvercast.8 mph93%30.46 "Hg10 mi
4:55 AM31 °FOvercast.10 mph90%30.46 "Hg10 mi
4:15 AM32 °FOvercast.7 mph91%30.44 "Hg7 mi
3:55 AM32 °FMostly cloudy.7 mph93%30.43 "Hg7 mi
3:35 AM32 °FIce fog.8 mph100%30.42 "Hg5 mi
3:15 AM32 °FIce fog.6 mph100%30.41 "Hg2 mi
Weather by CustomWeather, © 2015

See weather overviewHow to use our weather pages